SCP
0 0 0 0 0 -0 -0 -0 -0 -0 0 -0 0 0 0 0 0 0 -0 0 0 0 0 0 0 0 0 0 0 0 0 0 -0 -0 0 0 0 0 0 0 0 0 0 0 0 0 0 0 0
0 0 0 0 0 0 0 0 -0 0 -0 -0 0 0 0 0 0 0 0 0 0 0 0 0 0 0 0 0 0 0 0 0 0 0 0 0 0 0 0 0 0 0 0 0 0 0 0 0 0
0 0 0 0 0 0 0 0 0 0 0 0 0 0 0 0 0 0 0 0 0 0 0 0 0 0 0 0 0 0 0 0 0 0 0 0 0 0 0 0 0 0 0 0 0 0 0 0 0
0 0 0 -0 0 0 0 0 -0 -0 0 0 0 0 0 0 0 0 0 0 0 0 0 0 0 0 0 0 0 0 0 0 0 0 0 0 0 0 0 0 0 0 0 0 0 0 0 0 0
0 0 0 0 0 0 0 0 0 0 0 0 0 0 0 0 0 0 0 0 0 0 0 0 0 0 0 0 0 0 0 0 0 0 0 0 0 0 0 0 0 0 0 0 0 0 0 0 0
0 0 0 0 0 0 0 0 0 0 0 0 0 0 0 0 0 0 0 0 0 0 0 0 0 0 0 0 0 0 0 0 0 0 0 0 0 0 0 0 0 0 0 0 0 0 0 0 0
0 0 0 0 0 0 0 0 0 0 0 0 0 0 0 0 0 0 0 0 0 0 0 0 0 0 0 0 0 0 0 0 0 0 0 0 0 0 0 0 0 0 0 0 0 0 0 0 0
0 0 0 0 0 0 0 0 0 0 0 0 0 0 0 0 0 0 0 0 0 0 0 0 0 0 0 0 0 0 0 0 0 0 0 0 0 0 0 0 0 0 0 0 0 0 0 0 0
0 0 0 0 0 0 0 0 0 0 0 0 0 0 0 0 0 0 0 0 0 0 0 0 0 0 0 0 0 0 0 0 0 0 0 0 0 0 0 0 0 0 0 0 0 0 0 0 0
0 0 0 0 0 0 0 0 0 0 0 0 0 0 0 0 0 0 0 0 0 0 0 0 0 0 0 0 0 0 0 0 0 0 0 0 0 0 0 0 0 0 0 0 0 0 0 0 0
0 0 0 0 0 0 0 0 0 0 0 0 0 0 0 0 0 0 0 0 0 0 0 0 0 0 0 0 0 0 0 0 0 0 0 0 0 0 0 0 0 0 0 0 0 0 0 0 0
-0 -0 0 0 0 0 0 0 0 0 0 0 0 0 0 0 0 0 0 0 0 0 0 0 0 0 0 0 0 0 0 0 0 0 0 0 0 0 0 0 0 0 0 0 0 0 0 0 0
-0 0 0 0 0 0 0 0 0 0 0 0 0 0 0 0 0 0 0 0 0 0 0 0 0 0 0 0 0 0 0 0 0 0 0 0 0 0 0 0 0 0 0 0 0 0 0 0 0
0 0 0 0 0 0 0 0 0 0 0 0 0 0 0 0 0 0 0 0 0 0 0 0 0 0 0 0 0 0 0 0 0 0 0 0 0 0 0 0 0 0 0 0 0 0 0 0 0
0 0 0 0 0 0 0 0 0 0 0 0 0 0 0 0 0 0 0 0 0 0 0 0 0 0 0 0 0 0 0 0 0 0 0 0 0 0 0 0 0 0 0 0 0 0 0 0 0
0 0 0 0 0 0 0 0 0 0 0 0 0 0 0 0 0 0 0 0 0 0 0 0 0 0 0 0 0 0 0 0 0 0 0 0 0 0 0 0 0 0 0 0 0 0 0 0 0
-0 0 0 0 0 0 0 0 0 0 0 0 0 0 0 0 0 0 0 0 0 0 0 0 0 0 0 0 0 0 0 0 0 0 0 0 0 0 0 0 0 0 0 0 0 0 0 0 0
0 0 0 0 -0 0 0 0 0 0 0 0 0 0 0 0 0 0 0 0 0 0 0 0 0 0 0 0 0 0 0 0 0 0 0 0 0 0 0 0 0 0 0 0 0 0 0 0 0
0 -0 -0 -0 -0 -0 -0 0 0 0 0 0 0 0 0 0 0 0 0 0 0 0 0 0 0 0 0 0 0 0 0 0 0 0 0 0 0 0 0 0 0 0 0 0 0 0 0 0 0
0 0 0 -0 -0 -0 0 0 0 0 0 0 0 0 0 0 0 0 0 0 0 0 0 0 0 0 0 0 0 0 0 0 0 0 0 0 0 0 0 0 0 0 0 0 0 0 0 0 0
-0 -0 -0 0 -0 0 0 0 0 0 0 0 0 0 0 0 0 0 0 0 0 0 0 0 0 0 0 0 0 0 0 0 0 0 0 0 0 0 0 0 0 0 0 0 0 0 0 0 0
0 0 0 0 -0 0 0 0 0 0 0 0 0 0 0 0 0 0 0 0 0 0 0 0 0 0 0 0 0 0 0 0 0 0 0 -0 -0 0 0 0 0 0 0 0 0 0 0 0 0
0 0 0 0 0 0 0 0 0 0 0 0 0 0 0 0 0 0 0 0 0 0 0 0 0 0 0 0 0 0 0 0 -0 -0 0 0 0 0 0 0 0 0 0 0 0 0 0 0 0
0 0 0 0 0 0 0 0 0 0 0 0 0 0 0 0 0 0 0 0 0 0 0 0 0 0 0 0 0 0 0 -0 -0 -0 -0 -0 -0 -0 -0 0 0 0 0 0 0 0 0 0 0
0 0 -0 0 0 0 0 0 0 0 0 0 0 0 0 0 0 0 0 0 0 0 0 0 0 0 0 0 0 -0 -0 -0 0 0 0 0 0 0 0 0 0 0 0 0 0 0 0 0 0
0 0 0 0 0 0 0 0 0 0 0 0 0 0 0 0 0 0 0 0 0 0 0 0 0 0 0 0 0 0 0 0 0 0 0 0 0 0 0 0 0 0 0 0 0 0 0 0 0
0 0 0 0 0 0 0 0 0 0 0 0 0 0 0 0 0 0 0 0 0 0 0 0 0 0 0 0 0 0 0 0 0 0 0 0 0 0 0 0 0 0 0 0 0 0 0 0 0
0 0 0 0 0 0 0 0 0 0 0 0 0 0 0 0 0 0 0 0 0 0 0 0 0 0 0 0 0 0 0 0 0 0 0 0 0 0 0 0 0 0 0 0 0 0 0 0 0
0 0 0 0 0 0 0 0 0 0 0 0 0 0 0 0 0 0 0 0 0 0 0 0 0 0 0 0 0 0 0 0 0 0 0 0 0 0 0 0 0 0 0 0 0 0 0 0 0
0 0 0 0 0 0 0 0 0 0 0 0 0 0 0 0 0 0 0 0 0 0 0 0 0 0 0 0 0 0 0 0 0 0 0 0 0 0 0 0 0 0 0 0 0 0 0 0 0
Wind_Speed_500mb
8 10 9 2 7 8 3 6 7 6 7 18 25 7 15 13 5 1 4 2 6 9 5 10 8 9 6 5 4 4 10 16 1 2 9 13 16 18 17 17 15 16 17 17 16 16 16 15 13
4 6 5 5 8 7 6 7 11 7 13 20 15 10 11 7 11 4 4 5 3 6 7 9 8 2 5 2 1 11 20 10 2 9 11 15 20 23 22 19 19 18 18 19 18 17 16 15 15
2 5 7 8 6 6 4 5 6 6 17 3 9 15 7 6 8 3 9 4 7 5 4 8 11 6 4 5 4 11 10 6 4 4 11 13 17 19 20 20 18 19 19 20 21 21 20 18 16
5 5 11 9 9 8 5 8 6 6 10 12 19 13 10 6 3 6 4 12 12 4 3 7 11 11 6 2 10 13 11 11 13 17 21 22 21 23 22 20 20 21 22 20 20 21 22 22 20
8 7 9 9 5 4 6 10 10 6 7 14 3 6 8 8 11 8 5 6 9 1 3 3 4 5 10 15 13 14 17 15 16 18 19 20 22 22 24 23 22 21 21 22 22 22 25 26 25
7 6 10 7 5 4 6 20 5 8 8 8 13 11 6 5 6 6 6 2 1 7 4 4 3 7 16 17 21 24 23 23 23 21 20 24 26 26 27 25 23 23 23 25 27 27 25 26 28
12 8 7 7 6 6 6 13 8 5 11 16 6 8 6 6 6 9 5 5 6 9 7 12 5 13 19 25 25 22 24 24 24 27 27 27 29 26 26 25 25 26 28 29 29 30 28 27 29
7 10 7 4 6 1 9 5 3 13 10 7 8 7 5 8 10 6 3 1 2 2 13 19 24 24 22 22 26 25 27 29 30 30 30 30 30 28 27 27 28 30 31 31 31 30 30 30 31
6 9 5 4 6 4 12 3 8 11 15 21 14 12 10 13 9 4 1 5 10 17 21 27 30 30 30 28 30 29 32 31 30 29 29 29 30 31 32 33 33 32 32 32 32 33 33 33 34
14 9 4 2 1 3 8 11 10 5 10 13 19 18 13 9 8 2 5 10 15 20 25 27 28 31 31 30 30 30 29 28 28 28 28 30 31 32 33 33 33 34 34 34 35 35 36 37 37
9 8 7 4 8 8 10 12 11 6 10 12 6 9 11 12 7 6 10 12 16 18 17 20 23 27 27 27 29 29 30 30 30 30 31 31 32 34 35 35 36 37 38 37 38 37 38 39 40
13 13 7 8 14 9 9 8 11 20 8 11 10 13 12 13 14 9 8 9 12 15 15 19 24 30 31 32 31 31 32 33 33 32 33 34 34 35 37 38 38 39 41 40 41 41 42 43 43
13 5 16 15 14 30 9 14 8 21 12 11 16 17 18 18 13 12 11 11 11 15 18 23 27 35 37 39 38 36 36 36 37 37 37 39 40 39 40 40 40 41 43 43 43 44 45 45 44
13 27 22 23 19 25 10 15 8 27 13 11 19 24 24 19 16 8 9 15 17 22 26 32 36 39 41 41 40 38 36 36 35 35 37 38 41 41 42 42 41 42 45 45 47 48 49 48 50
10 9 10 37 33 11 6 12 11 39 6 21 27 30 25 22 15 22 17 16 17 19 21 24 27 30 33 35 36 35 32 32 35 38 39 39 40 42 44 45 44 45 47 49 51 51 53 53 52
11 10 8 11 38 11 10 5 19 28 18 34 34 24 20 19 17 18 18 18 19 19 21 23 25 28 29 29 30 29 30 35 37 40 38 36 37 38 42 45 44 45 48 52 53 54 55 55 54
16 4 6 4 18 8 13 1 19 16 35 42 36 30 27 25 22 21 18 17 19 22 22 23 25 27 27 26 27 28 31 34 37 39 40 39 40 39 45 46 46 49 55 56 59 59 60 59 57
4 5 5 4 13 12 8 3 12 21 31 33 33 31 28 23 26 19 19 21 21 22 24 25 29 31 33 33 31 29 32 35 38 39 41 44 46 48 52 54 54 55 61 61 61 65 62 63 62
5 3 7 5 9 9 6 3 8 16 25 27 26 25 23 21 18 16 19 20 20 22 27 32 32 36 38 41 45 45 47 47 45 44 42 43 47 52 56 60 60 58 63 63 63 66 67 68 61
15 6 10 10 10 9 4 5 3 8 7 12 18 19 18 16 14 16 18 21 24 27 28 31 35 39 42 45 48 52 55 54 57 58 56 55 53 53 58 61 64 63 65 68 69 68 74 74 65
4 6 3 11 15 2 7 10 10 5 17 15 15 16 14 14 13 14 16 19 20 25 31 34 37 41 45 50 55 60 65 70 75 77 80 77 74 70 66 66 69 70 70 74 73 73 72 78 74
3 4 4 8 7 4 8 9 11 10 10 8 12 13 12 10 9 9 13 18 24 29 32 36 41 47 54 61 65 70 73 78 79 83 87 91 88 84 78 76 74 74 76 80 80 78 76 74 80
4 2 6 4 5 6 8 6 10 11 13 15 19 13 8 6 3 8 14 19 25 30 37 42 48 55 60 65 70 75 79 81 85 86 88 87 85 82 83 81 78 79 80 79 78 82 80 79 80
7 3 7 6 6 5 8 7 10 12 11 9 22 18 11 6 1 5 12 18 25 34 41 48 53 58 63 68 71 74 77 81 84 87 90 94 96 97 89 78 74 77 80 82 77 75 76 80 81
11 11 8 12 10 9 2 2 19 5 3 13 32 28 18 12 7 10 17 25 34 43 50 55 60 64 68 71 74 75 76 77 79 82 85 89 94 95 96 90 84 74 73 80 78 73 75 73 80
9 8 9 9 6 11 3 12 10 1 4 13 24 24 22 18 14 14 20 30 40 49 55 59 63 68 71 73 74 74 72 72 74 75 78 82 86 90 92 94 92 84 78 75 74 72 71 73 73
1 7 4 11 4 6 6 15 6 3 4 12 22 25 26 22 22 24 26 33 44 53 58 62 67 68 71 74 75 75 73 71 72 72 72 77 79 84 87 89 95 89 82 74 65 65 67 70 67
6 6 7 6 6 12 11 12 13 11 19 16 27 36 28 26 28 32 33 37 46 56 61 63 67 71 76 78 76 75 73 72 72 72 74 77 80 81 82 84 87 85 80 64 61 60 66 65 64
3 3 7 5 7 9 8 12 12 13 15 24 47 32 25 25 30 34 34 35 49 59 62 68 73 76 77 76 77 76 75 76 73 73 74 76 79 80 83 86 83 78 73 62 62 66 70 64 60
8 12 12 8 11 8 4 18 3 12 19 27 34 25 23 27 32 31 27 41 53 63 67 71 75 76 76 76 76 75 78 79 75 75 75 75 78 79 81 83 79 73 70 65 61 66 63 61 60
Wind_Direction_500mb
293 322 354 329 65 73 35 20 216 59 61 66 71 88 108 56 2 107 16 54 198 328 318 309 318 300 263 243 211 197 151 119 79 263 330 324 327 334 335 323 326 327 329 329 332 331 331 331 329
295 337 11 47 81 63 332 308 57 41 134 107 88 89 52 63 40 48 360 102 235 346 19 352 346 340 288 280 234 152 153 156 78 355 339 330 339 341 335 326 324 326 328 330 331 329 327 323 320
78 49 38 83 76 89 142 5 27 43 157 222 113 69 78 39 22 74 69 159 131 347 24 30 26 24 25 142 120 350 349 308 345 294 304 318 326 325 326 326 326 321 322 325 327 327 325 321 312
127 73 64 73 71 9 41 336 310 185 97 60 107 66 72 43 41 109 73 63 37 60 82 60 15 334 292 63 16 353 352 339 337 337 325 327 323 321 321 326 326 323 322 319 323 324 322 317 313
109 72 61 76 75 70 5 339 336 48 72 56 64 106 57 56 50 142 97 47 316 185 146 17 335 5 359 0 358 3 348 339 342 328 317 306 303 307 308 314 317 319 319 318 320 320 319 315 312
73 71 67 117 104 1 342 355 21 57 51 33 74 95 89 114 42 85 137 102 110 64 355 86 61 30 15 357 358 355 347 341 331 322 318 312 310 308 304 302 303 303 305 310 314 313 311 310 306
111 80 117 113 134 24 324 351 36 33 36 33 78 76 110 123 104 100 89 87 112 343 292 312 16 9 352 347 339 343 341 334 333 326 319 313 309 306 302 303 302 303 306 307 309 308 308 307 306
79 87 89 20 163 142 331 39 30 41 53 44 55 90 133 175 133 115 100 248 195 347 359 339 340 333 336 339 329 327 328 326 324 317 311 308 305 304 303 303 304 304 302 303 303 304 304 304 302
43 64 86 146 143 204 351 48 49 59 78 58 53 81 103 147 145 140 282 312 300 314 315 328 328 331 324 325 320 323 322 323 319 315 311 307 305 303 300 300 298 300 301 301 301 302 303 303 302
60 78 136 239 334 346 356 52 11 48 48 65 71 89 102 106 116 23 323 316 314 302 299 305 314 311 318 323 322 326 324 321 319 316 312 309 305 303 301 301 301 300 299 301 301 301 302 302 301
39 109 162 40 16 4 354 34 43 58 34 38 35 122 92 101 88 52 21 2 338 336 343 340 336 325 327 328 326 323 321 319 318 315 312 308 307 306 305 303 302 301 300 300 300 300 300 299 299
91 57 70 40 28 29 19 6 55 52 65 31 58 79 87 90 79 61 20 333 330 331 327 324 326 326 328 330 326 326 326 322 319 315 312 308 305 304 303 302 300 300 300 300 300 299 300 300 300
69 90 64 49 60 35 57 61 55 51 31 61 86 79 89 94 74 81 48 5 341 325 329 324 316 311 319 321 321 321 322 323 322 320 317 313 311 308 305 304 303 302 300 300 299 298 297 296 295
93 88 66 34 32 32 67 35 77 350 5 102 95 96 97 91 75 72 22 1 343 335 324 318 312 313 317 319 319 318 317 315 317 315 311 308 307 306 305 305 303 302 301 301 301 301 298 297 297
82 72 44 19 356 33 44 28 4 347 110 127 117 108 100 80 59 47 29 359 346 330 330 324 325 322 317 317 316 316 314 311 313 313 313 309 307 305 303 302 302 304 303 302 300 299 298 297 296
44 50 39 349 15 359 25 232 338 15 121 123 125 121 113 92 65 44 24 10 1 353 350 347 342 340 339 333 328 322 313 311 313 314 314 311 306 306 304 303 304 305 302 301 298 296 294 294 294
13 94 17 302 26 294 28 337 346 39 133 129 129 121 104 86 62 44 31 21 12 7 4 1 358 356 354 351 344 334 327 324 321 318 315 312 308 303 302 303 303 305 303 303 301 296 295 294 292
346 20 329 282 344 14 27 89 355 54 112 107 103 95 88 73 57 43 32 29 26 23 19 15 9 4 3 357 355 352 352 350 345 337 330 323 311 301 298 296 295 297 298 300 301 298 294 294 295
301 50 328 352 22 355 18 65 358 34 76 84 94 99 89 77 63 47 40 39 38 32 25 23 16 14 5 3 357 354 353 349 346 343 340 330 319 309 303 300 299 295 294 296 296 297 295 291 292
26 14 348 292 9 26 330 257 1 53 67 103 113 104 94 89 72 57 48 39 32 28 21 15 10 5 359 355 353 348 341 335 333 329 326 323 318 314 309 303 297 291 288 290 290 293 295 291 289
57 110 294 228 334 37 330 282 194 128 122 110 99 103 101 81 66 53 41 31 20 13 10 5 359 353 349 344 339 334 331 329 328 324 321 317 313 307 302 299 297 292 285 281 283 287 290 289 285
299 176 270 286 26 259 14 278 230 185 176 173 159 150 135 122 81 50 30 15 8 6 357 351 348 346 343 342 339 339 337 332 328 323 319 315 312 308 303 297 293 291 290 284 282 280 281 287 282
266 293 242 108 97 32 354 68 266 127 229 211 203 183 152 131 74 31 16 6 359 349 345 343 343 342 341 340 339 338 334 330 326 324 320 317 315 313 311 308 303 297 294 289 286 280 278 275 280
295 121 53 62 102 26 240 122 254 194 213 176 201 197 192 184 202 350 351 345 344 345 340 339 338 338 338 337 335 334 332 329 328 328 327 326 325 326 324 319 308 301 298 295 293 288 278 276 275
22 43 349 356 5 230 36 351 253 243 217 204 188 193 200 215 254 303 323 335 341 340 341 340 339 338 338 337 336 334 331 328 325 324 324 324 325 324 324 322 319 307 295 292 290 289 283 277 275
30 115 141 249 273 282 25 241 264 121 143 162 187 205 219 234 261 293 320 334 336 337 338 337 336 335 336 334 331 328 325 321 319 318 318 318 319 321 321 318 316 311 301 292 288 286 284 281 276
248 50 138 103 114 36 260 286 254 127 263 205 211 218 232 250 267 282 302 320 329 335 336 335 334 331 330 329 326 324 322 320 320 320 318 318 316 319 318 316 314 312 309 297 290 286 286 278 279
113 158 37 10 335 302 279 276 247 250 237 230 228 230 242 261 276 286 293 309 323 329 330 329 329 328 328 327 324 321 321 321 322 321 321 322 321 321 320 316 313 311 313 304 299 289 297 282 274
26 6 45 129 151 205 287 257 212 212 216 216 226 232 253 279 294 296 292 308 320 326 327 327 328 326 325 324 323 322 320 320 320 320 322 323 323 323 323 321 316 313 314 307 298 301 298 288 270
205 203 173 135 248 231 192 271 172 230 264 224 224 235 269 293 302 301 301 315 320 325 326 326 326 326 326 323 323 322 321 321 319 318 319 323 324 325 323 323 318 314 312 307 304 301 295 293 277
Wind_Speed_850mb
8 10 9 2 7 8 3 6 7 6 7 18 25 7 15 13 5 1 4 2 6 9 5 10 8 9 6 5 4 4 10 16 1 2 9 13 16 18 17 17 15 16 17 17 16 16 16 15 13
4 6 5 5 8 7 6 7 11 7 13 20 15 10 11 7 11 4 4 5 3 6 7 9 8 2 5 2 1 11 20 10 2 9 11 15 20 23 22 19 19 18 18 19 18 17 16 15 15
2 5 7 8 6 6 4 5 6 6 17 3 9 15 7 6 8 3 9 4 7 5 4 8 11 6 4 5 4 11 10 6 4 4 11 13 17 19 20 20 18 19 19 20 21 21 20 18 16
5 5 11 9 9 8 5 8 6 6 10 12 19 13 10 6 3 6 4 12 12 4 3 7 11 11 6 2 10 13 11 11 13 17 21 22 21 23 22 20 20 21 22 20 20 21 22 22 20
8 7 9 9 5 4 6 10 10 6 7 14 3 6 8 8 11 8 5 6 9 1 3 3 4 5 10 15 13 14 17 15 16 18 19 20 22 22 24 23 22 21 21 22 22 22 25 26 25
7 6 10 7 5 4 6 20 5 8 8 8 13 11 6 5 6 6 6 2 1 7 4 4 3 7 16 17 21 24 23 23 23 21 20 24 26 26 27 25 23 23 23 25 27 27 25 26 28
12 8 7 7 6 6 6 13 8 5 11 16 6 8 6 6 6 9 5 5 6 9 7 12 5 13 19 25 25 22 24 24 24 27 27 27 29 26 26 25 25 26 28 29 29 30 28 27 29
7 10 7 4 6 1 9 5 3 13 10 7 8 7 5 8 10 6 3 1 2 2 13 19 24 24 22 22 26 25 27 29 30 30 30 30 30 28 27 27 28 30 31 31 31 30 30 30 31
6 9 5 4 6 4 12 3 8 11 15 21 14 12 10 13 9 4 1 5 10 17 21 27 30 30 30 28 30 29 32 31 30 29 29 29 30 31 32 33 33 32 32 32 32 33 33 33 34
14 9 4 2 1 3 8 11 10 5 10 13 19 18 13 9 8 2 5 10 15 20 25 27 28 31 31 30 30 30 29 28 28 28 28 30 31 32 33 33 33 34 34 34 35 35 36 37 37
9 8 7 4 8 8 10 12 11 6 10 12 6 9 11 12 7 6 10 12 16 18 17 20 23 27 27 27 29 29 30 30 30 30 31 31 32 34 35 35 36 37 38 37 38 37 38 39 40
13 13 7 8 14 9 9 8 11 20 8 11 10 13 12 13 14 9 8 9 12 15 15 19 24 30 31 32 31 31 32 33 33 32 33 34 34 35 37 38 38 39 41 40 41 41 42 43 43
13 5 16 15 14 30 9 14 8 21 12 11 16 17 18 18 13 12 11 11 11 15 18 23 27 35 37 39 38 36 36 36 37 37 37 39 40 39 40 40 40 41 43 43 43 44 45 45 44
13 27 22 23 19 25 10 15 8 27 13 11 19 24 24 19 16 8 9 15 17 22 26 32 36 39 41 41 40 38 36 36 35 35 37 38 41 41 42 42 41 42 45 45 47 48 49 48 50
10 9 10 37 33 11 6 12 11 39 6 21 27 30 25 22 15 22 17 16 17 19 21 24 27 30 33 35 36 35 32 32 35 38 39 39 40 42 44 45 44 45 47 49 51 51 53 53 52
11 10 8 11 38 11 10 5 19 28 18 34 34 24 20 19 17 18 18 18 19 19 21 23 25 28 29 29 30 29 30 35 37 40 38 36 37 38 42 45 44 45 48 52 53 54 55 55 54
16 4 6 4 18 8 13 1 19 16 35 42 36 30 27 25 22 21 18 17 19 22 22 23 25 27 27 26 27 28 31 34 37 39 40 39 40 39 45 46 46 49 55 56 59 59 60 59 57
4 5 5 4 13 12 8 3 12 21 31 33 33 31 28 23 26 19 19 21 21 22 24 25 29 31 33 33 31 29 32 35 38 39 41 44 46 48 52 54 54 55 61 61 61 65 62 63 62
5 3 7 5 9 9 6 3 8 16 25 27 26 25 23 21 18 16 19 20 20 22 27 32 32 36 38 41 45 45 47 47 45 44 42 43 47 52 56 60 60 58 63 63 63 66 67 68 61
15 6 10 10 10 9 4 5 3 8 7 12 18 19 18 16 14 16 18 21 24 27 28 31 35 39 42 45 48 52 55 54 57 58 56 55 53 53 58 61 64 63 65 68 69 68 74 74 65
4 6 3 11 15 2 7 10 10 5 17 15 15 16 14 14 13 14 16 19 20 25 31 34 37 41 45 50 55 60 65 70 75 77 80 77 74 70 66 66 69 70 70 74 73 73 72 78 74
3 4 4 8 7 4 8 9 11 10 10 8 12 13 12 10 9 9 13 18 24 29 32 36 41 47 54 61 65 70 73 78 79 83 87 91 88 84 78 76 74 74 76 80 80 78 76 74 80
4 2 6 4 5 6 8 6 10 11 13 15 19 13 8 6 3 8 14 19 25 30 37 42 48 55 60 65 70 75 79 81 85 86 88 87 85 82 83 81 78 79 80 79 78 82 80 79 80
7 3 7 6 6 5 8 7 10 12 11 9 22 18 11 6 1 5 12 18 25 34 41 48 53 58 63 68 71 74 77 81 84 87 90 94 96 97 89 78 74 77 80 82 77 75 76 80 81
11 11 8 12 10 9 2 2 19 5 3 13 32 28 18 12 7 10 17 25 34 43 50 55 60 64 68 71 74 75 76 77 79 82 85 89 94 95 96 90 84 74 73 80 78 73 75 73 80
9 8 9 9 6 11 3 12 10 1 4 13 24 24 22 18 14 14 20 30 40 49 55 59 63 68 71 73 74 74 72 72 74 75 78 82 86 90 92 94 92 84 78 75 74 72 71 73 73
1 7 4 11 4 6 6 15 6 3 4 12 22 25 26 22 22 24 26 33 44 53 58 62 67 68 71 74 75 75 73 71 72 72 72 77 79 84 87 89 95 89 82 74 65 65 67 70 67
6 6 7 6 6 12 11 12 13 11 19 16 27 36 28 26 28 32 33 37 46 56 61 63 67 71 76 78 76 75 73 72 72 72 74 77 80 81 82 84 87 85 80 64 61 60 66 65 64
3 3 7 5 7 9 8 12 12 13 15 24 47 32 25 25 30 34 34 35 49 59 62 68 73 76 77 76 77 76 75 76 73 73 74 76 79 80 83 86 83 78 73 62 62 66 70 64 60
8 12 12 8 11 8 4 18 3 12 19 27 34 25 23 27 32 31 27 41 53 63 67 71 75 76 76 76 76 75 78 79 75 75 75 75 78 79 81 83 79 73 70 65 61 66 63 61 60
Wind_Direction_850mb
293 322 354 329 65 73 35 20 216 59 61 66 71 88 108 56 2 107 16 54 198 328 318 309 318 300 263 243 211 197 151 119 79 263 330 324 327 334 335 323 326 327 329 329 332 331 331 331 329
295 337 11 47 81 63 332 308 57 41 134 107 88 89 52 63 40 48 360 102 235 346 19 352 346 340 288 280 234 152 153 156 78 355 339 330 339 341 335 326 324 326 328 330 331 329 327 323 320
78 49 38 83 76 89 142 5 27 43 157 222 113 69 78 39 22 74 69 159 131 347 24 30 26 24 25 142 120 350 349 308 345 294 304 318 326 325 326 326 326 321 322 325 327 327 325 321 312
127 73 64 73 71 9 41 336 310 185 97 60 107 66 72 43 41 109 73 63 37 60 82 60 15 334 292 63 16 353 352 339 337 337 325 327 323 321 321 326 326 323 322 319 323 324 322 317 313
109 72 61 76 75 70 5 339 336 48 72 56 64 106 57 56 50 142 97 47 316 185 146 17 335 5 359 0 358 3 348 339 342 328 317 306 303 307 308 314 317 319 319 318 320 320 319 315 312
73 71 67 117 104 1 342 355 21 57 51 33 74 95 89 114 42 85 137 102 110 64 355 86 61 30 15 357 358 355 347 341 331 322 318 312 310 308 304 302 303 303 305 310 314 313 311 310 306
111 80 117 113 134 24 324 351 36 33 36 33 78 76 110 123 104 100 89 87 112 343 292 312 16 9 352 347 339 343 341 334 333 326 319 313 309 306 302 303 302 303 306 307 309 308 308 307 306
79 87 89 20 163 142 331 39 30 41 53 44 55 90 133 175 133 115 100 248 195 347 359 339 340 333 336 339 329 327 328 326 324 317 311 308 305 304 303 303 304 304 302 303 303 304 304 304 302
43 64 86 146 143 204 351 48 49 59 78 58 53 81 103 147 145 140 282 312 300 314 315 328 328 331 324 325 320 323 322 323 319 315 311 307 305 303 300 300 298 300 301 301 301 302 303 303 302
60 78 136 239 334 346 356 52 11 48 48 65 71 89 102 106 116 23 323 316 314 302 299 305 314 311 318 323 322 326 324 321 319 316 312 309 305 303 301 301 301 300 299 301 301 301 302 302 301
39 109 162 40 16 4 354 34 43 58 34 38 35 122 92 101 88 52 21 2 338 336 343 340 336 325 327 328 326 323 321 319 318 315 312 308 307 306 305 303 302 301 300 300 300 300 300 299 299
91 57 70 40 28 29 19 6 55 52 65 31 58 79 87 90 79 61 20 333 330 331 327 324 326 326 328 330 326 326 326 322 319 315 312 308 305 304 303 302 300 300 300 300 300 299 300 300 300
69 90 64 49 60 35 57 61 55 51 31 61 86 79 89 94 74 81 48 5 341 325 329 324 316 311 319 321 321 321 322 323 322 320 317 313 311 308 305 304 303 302 300 300 299 298 297 296 295
93 88 66 34 32 32 67 35 77 350 5 102 95 96 97 91 75 72 22 1 343 335 324 318 312 313 317 319 319 318 317 315 317 315 311 308 307 306 305 305 303 302 301 301 301 301 298 297 297
82 72 44 19 356 33 44 28 4 347 110 127 117 108 100 80 59 47 29 359 346 330 330 324 325 322 317 317 316 316 314 311 313 313 313 309 307 305 303 302 302 304 303 302 300 299 298 297 296
44 50 39 349 15 359 25 232 338 15 121 123 125 121 113 92 65 44 24 10 1 353 350 347 342 340 339 333 328 322 313 311 313 314 314 311 306 306 304 303 304 305 302 301 298 296 294 294 294
13 94 17 302 26 294 28 337 346 39 133 129 129 121 104 86 62 44 31 21 12 7 4 1 358 356 354 351 344 334 327 324 321 318 315 312 308 303 302 303 303 305 303 303 301 296 295 294 292
346 20 329 282 344 14 27 89 355 54 112 107 103 95 88 73 57 43 32 29 26 23 19 15 9 4 3 357 355 352 352 350 345 337 330 323 311 301 298 296 295 297 298 300 301 298 294 294 295
301 50 328 352 22 355 18 65 358 34 76 84 94 99 89 77 63 47 40 39 38 32 25 23 16 14 5 3 357 354 353 349 346 343 340 330 319 309 303 300 299 295 294 296 296 297 295 291 292
26 14 348 292 9 26 330 257 1 53 67 103 113 104 94 89 72 57 48 39 32 28 21 15 10 5 359 355 353 348 341 335 333 329 326 323 318 314 309 303 297 291 288 290 290 293 295 291 289
57 110 294 228 334 37 330 282 194 128 122 110 99 103 101 81 66 53 41 31 20 13 10 5 359 353 349 344 339 334 331 329 328 324 321 317 313 307 302 299 297 292 285 281 283 287 290 289 285
299 176 270 286 26 259 14 278 230 185 176 173 159 150 135 122 81 50 30 15 8 6 357 351 348 346 343 342 339 339 337 332 328 323 319 315 312 308 303 297 293 291 290 284 282 280 281 287 282
266 293 242 108 97 32 354 68 266 127 229 211 203 183 152 131 74 31 16 6 359 349 345 343 343 342 341 340 339 338 334 330 326 324 320 317 315 313 311 308 303 297 294 289 286 280 278 275 280
295 121 53 62 102 26 240 122 254 194 213 176 201 197 192 184 202 350 351 345 344 345 340 339 338 338 338 337 335 334 332 329 328 328 327 326 325 326 324 319 308 301 298 295 293 288 278 276 275
22 43 349 356 5 230 36 351 253 243 217 204 188 193 200 215 254 303 323 335 341 340 341 340 339 338 338 337 336 334 331 328 325 324 324 324 325 324 324 322 319 307 295 292 290 289 283 277 275
30 115 141 249 273 282 25 241 264 121 143 162 187 205 219 234 261 293 320 334 336 337 338 337 336 335 336 334 331 328 325 321 319 318 318 318 319 321 321 318 316 311 301 292 288 286 284 281 276
248 50 138 103 114 36 260 286 254 127 263 205 211 218 232 250 267 282 302 320 329 335 336 335 334 331 330 329 326 324 322 320 320 320 318 318 316 319 318 316 314 312 309 297 290 286 286 278 279
113 158 37 10 335 302 279 276 247 250 237 230 228 230 242 261 276 286 293 309 323 329 330 329 329 328 328 327 324 321 321 321 322 321 321 322 321 321 320 316 313 311 313 304 299 289 297 282 274
26 6 45 129 151 205 287 257 212 212 216 216 226 232 253 279 294 296 292 308 320 326 327 327 328 326 325 324 323 322 320 320 320 320 322 323 323 323 323 321 316 313 314 307 298 301 298 288 270
205 203 173 135 248 231 192 271 172 230 264 224 224 235 269 293 302 301 301 315 320 325 326 326 326 326 326 323 323 322 321 321 319 318 319 323 324 325 323 323 318 314 312 307 304 301 295 293 277